Wind_Speed
7 7 6 7 7 5 2 3 1 2 2 1 2 1 4 5 2 3 3 2 2 3 3 3 5 5 5 5 7 6 5 4 4 4 3 4 18 28 21 16 21 22 20 17 15 15 14 14 14 15 15 16 17 16 16 16 16 15 14 14 14 13 12 13 14 14 13 13 14 15 16 16 16 15 15 15 15 15 16 16 16 16 16 15 15 15 15 15 15 16 17 17 16 16 16 17 18
6 6 6 6 5 2 1 2 2 3 3 1 3 3 5 4 1 5 5 2 3 2 5 8 8 8 8 6 5 4 6 5 2 3 2 10 22 23 16 17 24 22 20 18 16 15 13 13 14 14 15 16 16 16 16 16 16 15 14 14 14 13 12 12 13 13 13 12 12 13 14 15 15 14 14 13 13 14 15 15 15 15 15 15 14 15 15 16 16 16 18 18 17 17 17 18 19
5 5 4 3 2 2 1 3 2 1 2 2 4 4 4 4 4 7 5 7 8 8 9 8 6 5 3 4 3 3 2 3 5 5 5 15 16 15 16 19 24 21 19 17 15 15 13 13 13 13 14 15 16 16 16 16 16 16 15 14 14 14 12 12 12 13 13 12 12 12 12 12 13 13 14 13 12 14 15 14 14 14 14 14 14 14 15 16 16 16 18 18 18 18 18 19 20
5 5 4 1 1 3 3 3 2 4 2 3 2 4 2 1 2 2 5 10 10 9 6 4 4 3 2 6 3 4 3 1 5 6 7 11 12 16 20 22 24 20 18 16 15 14 13 13 13 13 13 14 15 15 15 16 16 16 15 14 15 15 13 11 11 12 12 12 12 11 11 11 11 12 12 12 12 13 14 13 13 14 13 13 13 13 15 18 17 15 17 18 18 18 18 19 20
5 4 2 2 2 1 2 2 1 4 3 4 0 4 2 3 5 6 5 6 5 4 4 4 3 1 3 5 1 2 3 3 5 6 8 10 15 21 23 24 23 19 18 15 13 13 12 13 13 13 13 13 13 15 15 15 16 16 15 15 15 15 14 12 11 11 11 11 11 11 10 10 10 10 11 11 10 11 12 12 12 13 13 13 13 12 16 19 18 16 17 19 19 18 18 19 21
4 2 2 2 2 1 2 1 1 2 5 4 2 5 3 5 4 5 3 4 2 1 3 4 5 5 3 2 2 3 4 5 6 6 10 15 21 24 24 25 22 20 17 14 13 11 12 12 12 13 13 12 12 14 16 15 15 15 15 15 15 16 15 14 12 11 11 11 11 10 10 9 9 9 10 10 10 10 10 11 11 12 12 12 12 12 16 20 19 18 19 20 20 19 18 19 22
3 2 2 3 1 1 3 2 3 3 4 5 4 6 2 3 4 4 2 2 4 2 1 5 9 9 3 1 3 2 5 8 8 11 17 22 26 26 25 24 21 19 15 14 12 11 12 12 13 13 14 13 12 13 15 15 14 14 14 15 15 15 15 14 13 11 11 11 10 10 9 9 9 9 9 9 10 10 11 11 10 11 12 12 11 11 16 20 20 21 21 21 21 20 19 19 21
3 1 1 3 1 2 3 1 3 3 3 5 4 8 6 2 5 3 2 1 1 1 4 7 6 6 2 2 3 2 8 12 13 19 24 25 27 26 25 24 21 19 16 14 12 12 12 12 13 12 13 13 12 12 13 14 13 13 13 14 15 15 15 14 13 11 11 11 10 10 9 9 9 9 10 10 9 9 11 12 10 10 11 11 11 11 15 19 20 21 22 21 20 18 17 17 17
4 2 1 3 1 1 1 2 3 3 4 5 6 9 8 3 5 4 5 4 2 5 6 6 3 4 3 4 5 2 9 16 21 24 26 26 26 26 25 24 22 19 17 14 13 12 11 12 13 12 11 12 12 11 12 12 12 13 12 13 15 16 16 15 13 12 11 11 10 9 9 9 9 10 10 10 9 9 10 11 10 10 10 11 11 11 13 17 18 19 20 19 18 16 16 15 15
4 2 1 2 2 1 3 3 3 3 5 5 7 9 9 7 5 6 8 5 4 5 5 2 4 8 8 6 4 2 10 20 24 24 24 25 26 25 24 23 21 20 17 15 13 12 12 12 12 13 12 12 12 12 12 12 11 12 12 12 14 15 17 16 15 12 12 11 10 9 8 9 9 10 10 10 10 10 10 9 9 9 9 11 11 10 12 15 15 17 18 18 17 15 14 13 12
3 3 2 3 3 0 2 3 4 4 5 4 7 10 10 8 4 6 6 7 4 3 6 5 7 10 9 5 1 5 15 22 24 23 23 25 25 24 23 22 20 19 17 15 14 14 14 12 12 13 13 12 13 12 11 11 11 11 12 12 11 14 16 17 16 13 12 11 10 9 8 9 9 10 10 10 10 10 10 9 9 9 9 10 10 10 11 13 13 14 15 16 16 14 14 13 11
2 2 4 3 2 2 3 3 5 5 6 5 6 9 6 5 5 6 8 10 6 4 5 3 7 8 8 3 1 8 15 18 22 24 23 24 24 23 22 21 20 18 16 15 16 15 15 14 14 13 13 13 12 12 11 10 11 12 11 10 10 14 16 16 16 14 12 11 10 10 9 9 9 10 10 10 10 10 10 10 9 9 9 10 9 9 9 10 11 13 14 14 14 14 14 13 12
3 2 5 2 3 3 2 2 5 4 6 4 5 8 2 6 8 10 10 10 9 7 4 4 9 7 5 3 2 7 11 14 21 24 24 24 22 21 20 20 20 18 16 16 16 16 15 15 14 13 13 12 12 11 11 11 11 11 11 9 10 15 17 16 15 14 12 11 10 9 8 8 9 10 10 10 10 11 11 10 9 9 10 10 9 8 8 9 10 12 13 12 12 13 13 13 13
3 2 4 1 1 2 2 2 2 2 4 6 5 8 4 4 8 12 11 10 8 6 3 6 11 9 5 4 3 5 8 17 22 24 24 23 22 21 20 21 20 18 16 17 16 15 14 14 14 13 12 11 11 11 11 11 11 11 10 9 10 14 16 15 15 13 12 10 10 9 8 8 9 9 10 10 11 11 11 10 10 10 11 10 9 8 7 8 10 12 13 12 11 12 13 13 12
4 1 4 2 2 1 2 3 1 1 4 6 5 7 4 2 5 12 13 12 6 4 7 6 6 7 7 9 6 8 13 22 24 24 25 23 22 20 19 19 19 17 16 16 14 13 13 13 13 11 9 9 9 10 10 10 10 10 10 10 11 13 15 14 14 13 11 10 9 8 7 8 9 9 10 10 10 11 10 10 10 11 10 10 9 7 7 8 10 12 13 12 11 11 12 12 12
3 3 4 2 1 2 2 3 1 1 5 6 6 6 3 5 4 8 7 8 7 6 6 4 3 2 11 9 8 17 22 25 25 25 25 23 22 19 18 18 18 18 16 16 13 12 11 11 11 9 7 7 8 9 9 10 10 9 10 10 11 13 14 13 14 13 11 10 9 8 7 7 8 9 10 10 10 10 9 9 10 9 10 9 8 6 7 8 9 11 13 13 12 10 11 12 12
2 4 3 1 2 3 3 3 2 1 5 8 8 5 3 4 4 3 2 6 11 9 4 2 2 1 9 8 15 26 27 27 27 27 25 23 22 20 19 18 19 18 17 16 13 11 11 10 9 7 6 7 7 7 8 10 10 10 10 10 11 12 13 13 13 12 11 11 10 8 7 8 9 10 10 10 10 9 8 9 9 8 9 8 7 7 7 8 9 10 12 14 14 11 10 12 13
3 3 3 1 3 4 4 5 4 1 4 9 7 5 4 6 2 2 6 7 6 7 6 4 6 7 10 16 25 29 27 28 27 25 22 20 20 18 17 18 19 18 17 16 13 12 11 10 8 7 6 7 8 7 8 9 10 11 10 10 11 11 11 12 13 12 12 12 11 9 8 9 9 10 11 11 10 9 8 9 9 9 10 8 7 8 8 8 9 11 12 14 15 13 11 11 13
3 3 2 3 5 5 5 5 5 1 4 8 6 6 0 7 5 3 5 5 5 7 5 5 9 9 13 19 25 25 26 27 24 22 19 17 18 17 16 17 18 18 18 17 15 13 11 10 9 8 8 8 8 7 8 8 9 10 11 10 10 11 11 12 12 12 13 13 13 11 11 10 9 8 9 10 9 9 9 9 9 9 10 9 8 8 9 10 10 12 14 15 15 14 12 11 12
1 3 2 5 6 5 6 7 8 5 2 6 6 4 1 3 2 3 7 7 5 7 6 7 9 10 13 14 19 23 23 21 21 22 17 16 17 18 19 18 19 19 19 18 16 14 12 12 11 10 9 9 8 8 9 8 8 9 10 10 10 10 10 10 10 11 14 14 14 13 12 11 10 8 7 7 9 10 10 9 10 10 10 9 9 9 10 11 11 13 14 15 15 15 13 11 11
1 3 5 6 4 4 8 8 9 5 3 2 3 3 2 1 2 4 11 9 2 5 9 11 14 15 16 14 15 20 20 17 19 20 17 16 15 17 20 20 21 20 19 18 17 15 13 12 12 11 10 9 9 9 8 8 8 9 9 10 10 10 9 9 10 10 13 14 14 14 12 11 10 8 6 7 9 12 12 11 11 11 10 9 9 10 11 12 13 14 15 15 15 15 14 12 11
1 3 6 7 3 3 8 6 7 6 2 1 2 4 1 2 3 6 10 9 6 8 10 13 18 19 19 17 15 15 15 14 15 17 17 16 15 17 18 19 20 19 19 18 17 16 14 12 12 12 11 9 8 8 8 8 9 9 10 10 10 10 10 10 10 9 10 12 12 12 12 11 9 8 7 8 10 13 14 13 12 11 10 9 9 10 11 12 13 14 15 15 14 14 13 11 10
2 4 5 6 4 4 8 3 2 3 1 0 1 3 1 3 5 5 3 5 6 7 9 13 18 20 22 19 16 15 14 13 13 16 19 18 18 19 19 19 19 19 19 18 17 16 14 13 12 13 12 10 9 9 9 9 10 10 10 11 10 11 11 10 10 8 8 8 8 11 11 10 9 8 7 8 9 13 15 14 12 11 10 9 8 9 10 12 13 14 14 14 13 12 11 10 9
3 5 6 6 6 7 9 5 3 3 1 1 1 4 4 3 6 2 3 6 5 4 7 10 12 15 18 16 15 15 14 13 14 18 21 21 22 22 22 21 20 21 20 18 17 16 14 13 13 13 12 11 10 10 10 10 11 11 11 10 10 11 12 11 10 8 7 6 5 8 9 9 9 8 8 9 9 12 15 15 14 12 10 9 8 8 9 10 12 13 13 12 11 10 10 9 7
4 6 6 5 5 7 9 8 6 5 4 1 4 6 2 4 5 2 4 7 3 7 7 8 10 12 13 13 14 13 12 12 14 16 18 21 24 23 22 23 23 22 22 20 17 17 16 15 14 13 13 12 12 12 12 11 11 11 10 10 11 11 12 11 10 8 8 7 6 7 8 9 10 9 9 10 10 11 15 17 15 13 11 10 9 9 8 9 10 12 13 11 11 10 9 8 6
6 7 6 5 6 7 8 9 7 6 5 1 4 4 2 3 3 0 5 5 1 8 9 9 12 13 12 11 12 13 12 12 13 16 19 22 25 23 23 24 26 25 24 22 20 19 16 15 14 13 14 13 13 13 12 11 10 10 10 10 11 11 12 12 11 9 8 7 6 7 9 10 11 11 10 10 11 11 13 17 16 14 13 11 11 10 10 10 10 11 12 11 11 10 9 7 6
5 5 7 8 9 7 3 5 7 6 3 1 5 2 3 4 1 3 4 2 5 9 9 9 13 13 12 10 11 11 11 13 17 20 19 20 22 23 23 24 27 27 25 24 21 19 17 15 14 13 14 14 13 12 10 10 9 8 9 10 10 10 11 12 11 10 9 8 7 8 9 10 12 12 10 9 11 12 14 17 17 16 15 13 12 12 11 11 11 12 12 11 11 11 10 8 8
5 5 6 7 5 5 2 2 5 3 1 2 6 2 3 5 1 5 3 3 7 12 10 9 12 11 11 11 10 9 9 14 20 20 18 18 21 25 24 25 29 28 26 24 21 19 16 15 13 13 14 14 13 12 10 9 8 6 5 6 8 8 10 11 10 9 9 9 8 8 9 10 11 11 11 10 10 12 15 18 18 18 17 15 13 12 13 12 13 13 13 12 12 12 12 12 11
6 3 2 6 5 1 3 2 3 1 2 4 6 4 6 4 3 3 3 4 6 12 12 10 11 9 9 9 8 6 7 13 16 17 20 22 25 28 27 27 29 27 24 23 20 18 16 14 14 15 15 14 14 12 11 10 8 6 5 6 6 5 6 8 9 8 7 7 8 9 10 11 11 11 11 10 10 11 14 17 18 18 18 16 14 13 13 13 14 14 13 13 13 14 14 13 12
5 3 2 4 6 2 4 1 2 1 2 3 4 1 6 6 6 3 4 6 5 9 12 11 10 8 7 7 6 6 7 11 13 17 23 26 27 30 30 28 27 26 23 22 20 18 16 15 16 16 15 15 13 12 11 9 8 7 7 8 8 7 5 5 7 7 6 6 7 8 9 9 9 10 11 10 9 10 13 16 18 19 18 17 16 15 14 14 13 13 14 13 13 14 15 15 14
4 3 2 3 2 3 7 4 1 2 1 1 6 2 6 7 8 7 4 6 7 9 11 10 8 7 6 6 7 6 6 8 13 19 25 28 29 31 31 29 27 26 24 23 21 19 17 16 17 17 16 15 13 12 11 9 8 7 7 8 8 6 6 6 5 5 6 6 7 7 7 7 6 6 8 8 8 9 11 13 15 18 19 19 18 17 16 15 14 14 15 14 14 15 17 17 17
3 2 3 4 1 4 8 4 3 4 2 3 7 2 6 7 8 8 6 7 8 9 9 8 7 7 7 6 6 6 5 6 11 18 24 28 31 32 33 31 29 27 26 24 22 20 18 17 17 18 17 16 14 12 11 10 8 7 6 7 7 5 4 5 5 5 5 4 5 5 6 5 4 4 5 6 6 8 10 12 12 14 16 17 17 18 17 17 16 16 15 16 17 18 18 18 17
4 2 1 3 2 3 5 3 2 2 2 1 3 3 3 6 6 5 5 8 10 9 9 8 7 7 7 6 6 6 6 6 8 14 22 28 31 34 35 33 31 28 26 26 24 22 20 19 19 19 18 17 14 13 12 10 10 8 7 7 7 5 3 3 5 6 5 5 4 3 4 4 4 4 4 4 6 7 9 12 12 11 12 12 12 16 18 19 18 18 18 17 16 17 17 16 15
4 3 1 3 1 1 3 4 4 2 2 4 2 4 4 6 5 2 2 6 10 10 11 10 8 7 6 6 6 7 8 8 9 15 23 27 30 34 35 34 32 29 27 26 24 22 21 20 19 19 19 17 14 13 12 11 12 10 9 8 7 6 4 4 6 7 6 5 4 3 3 3 3 4 4 4 4 4 5 8 10 10 10 10 9 12 15 16 17 18 18 16 14 15 16 14 14
2 1 2 2 2 1 2 4 4 4 2 5 3 4 7 8 6 5 2 5 9 11 9 8 8 8 7 6 7 7 9 10 12 19 26 27 29 32 34 34 32 30 29 26 24 22 21 20 20 21 19 17 15 14 13 14 14 11 10 8 7 7 6 6 7 7 6 4 4 4 3 3 3 3 4 3 2 1 1 2 6 10 10 8 8 9 11 12 14 15 15 14 14 14 16 15 15
5 3 4 2 1 2 4 5 4 2 1 2 3 4 6 7 7 8 5 1 6 9 6 5 6 6 7 6 7 8 10 12 14 20 25 26 28 31 32 33 32 31 30 27 25 23 22 21 21 22 21 19 18 17 17 18 16 13 11 9 9 8 8 7 7 7 6 5 4 4 4 3 3 3 3 2 1 1 2 3 3 8 7 4 3 5 7 8 10 12 12 13 14 15 16 17 17
5 4 4 2 1 3 5 5 6 2 3 2 4 3 4 6 7 7 7 5 1 5 6 7 8 7 7 8 8 10 11 9 10 16 22 23 24 27 29 30 30 29 29 28 27 25 23 23 23 24 23 21 21 20 20 20 19 16 13 11 10 9 8 7 7 7 6 5 4 4 4 4 3 3 3 2 0 1 2 3 2 5 3 1 0 1 2 3 5 8 10 12 14 15 17 15 13
4 4 3 2 0 3 4 4 6 3 4 2 4 1 3 6 6 7 5 5 4 4 7 8 10 10 9 10 11 9 7 5 7 11 17 19 19 23 25 28 31 31 31 31 29 27 25 25 24 25 25 24 23 22 22 21 20 17 15 13 11 9 7 6 6 6 4 3 4 4 4 3 3 3 3 3 3 1 2 4 3 1 1 2 2 2 2 1 0 3 7 9 11 12 14 14 11
4 2 2 2 2 3 6 5 6 4 3 3 4 3 5 7 6 7 5 4 6 5 6 7 8 9 8 9 9 8 6 5 7 9 13 17 18 21 24 27 30 32 32 32 30 28 28 27 26 26 26 26 26 24 22 20 19 17 15 14 12 10 8 6 6 5 3 3 3 4 3 1 1 1 2 4 5 4 4 5 5 4 3 2 2 3 5 5 4 3 2 3 6 8 11 13 12
3 3 2 2 3 1 3 5 6 4 3 0 0 2 5 7 5 7 6 4 5 6 5 6 8 9 10 11 9 9 10 9 10 10 11 14 15 19 23 26 27 28 30 33 31 30 30 30 29 28 28 28 28 25 21 19 18 16 14 14 13 11 9 8 6 5 4 3 3 3 2 1 0 2 4 6 6 5 4 4 4 3 4 4 3 4 5 6 6 5 5 5 4 4 7 9 10
2 2 4 3 3 3 4 4 6 5 5 3 4 4 5 4 4 6 5 4 5 6 6 5 6 8 9 9 8 8 10 12 13 12 11 10 15 21 24 25 26 27 31 35 35 34 33 32 31 30 31 30 29 26 22 20 18 16 16 15 13 11 10 9 7 5 5 4 4 3 2 0 1 4 5 5 5 4 3 2 2 2 2 3 4 5 6 6 7 7 5 5 5 3 4 5 6
4 3 6 6 5 4 2 3 5 5 5 4 4 2 5 4 4 7 5 5 5 5 6 8 7 5 6 8 9 9 9 10 10 12 13 14 18 21 21 23 25 28 33 36 37 35 34 34 33 32 32 31 29 26 23 21 19 19 20 19 17 14 12 10 6 5 5 4 4 3 2 2 2 4 4 3 3 3 3 2 1 2 2 2 3 4 5 5 6 7 7 6 6 6 5 4 5
2 5 7 6 5 5 3 1 4 2 3 4 2 3 5 5 4 7 5 5 8 8 6 9 9 5 6 8 9 11 11 11 9 10 12 14 17 17 18 25 29 31 33 32 33 35 35 35 34 33 33 32 29 27 25 23 21 22 23 22 19 17 15 12 7 5 5 4 4 3 3 3 4 4 4 3 3 2 3 2 2 2 3 3 3 3 5 6 6 6 7 7 7 6 5 5 6
3 5 6 7 6 6 5 5 4 2 3 3 4 3 2 4 5 7 5 5 8 9 9 9 10 9 8 8 10 11 12 13 11 11 12 13 16 19 23 29 33 32 30 29 33 35 36 36 35 34 33 32 29 27 26 24 24 26 25 22 19 17 15 12 9 8 6 5 5 4 4 4 4 5 5 3 2 2 2 1 1 2 2 2 2 3 4 5 5 5 5 6 6 7 7 6 6
6 5 6 5 4 6 5 6 4 1 1 3 6 2 1 4 7 6 4 3 8 9 11 11 11 11 9 9 10 11 12 14 13 14 15 14 18 24 28 31 33 31 30 32 35 36 36 36 35 33 32 31 30 27 26 26 27 28 25 22 19 17 15 13 11 10 8 7 6 5 5 5 5 5 4 3 2 1 1 1 2 3 3 4 4 4 5 4 4 5 5 5 6 6 7 6 6
5 5 5 4 4 5 4 5 3 2 3 3 6 0 1 4 7 5 3 2 7 8 9 9 11 12 8 8 9 9 10 11 13 15 15 18 24 28 28 28 28 29 29 31 32 33 34 35 35 34 32 31 30 27 27 28 29 28 25 22 19 18 17 15 14 13 11 10 8 7 6 6 5 5 4 2 1 0 2 4 5 6 6 6 6 6 6 6 6 6 6 6 6 6 6 6 6
3 5 5 5 5 4 3 3 3 3 2 5 6 4 4 1 6 4 2 4 5 5 8 9 10 11 9 8 7 8 10 9 11 12 13 17 20 19 19 21 22 23 23 25 28 31 33 35 35 34 33 32 30 28 30 31 30 29 26 22 20 19 19 18 17 16 15 13 11 9 7 6 6 5 4 3 2 0 3 4 6 7 7 8 8 8 8 8 8 7 7 7 7 7 7 6 6
5 5 4 2 3 4 4 4 3 1 4 6 6 4 5 1 5 5 4 6 5 5 8 10 12 13 10 7 3 4 8 10 11 10 10 11 10 11 16 18 19 21 22 25 28 29 30 34 36 35 33 33 31 31 32 33 31 29 26 23 21 21 21 21 20 19 17 16 13 11 9 8 7 6 5 5 3 2 2 2 4 5 7 9 10 10 9 8 8 8 9 9 8 8 8 8 7
5 4 5 4 1 3 2 3 1 2 5 4 4 2 2 3 7 7 7 8 7 5 6 8 10 12 11 7 2 1 1 5 9 9 9 8 8 11 16 19 21 24 27 29 30 30 32 35 36 36 35 35 34 33 34 34 32 30 27 24 23 22 22 22 22 21 18 16 15 12 11 10 9 8 7 6 4 3 2 1 4 5 7 9 11 11 10 9 10 10 11 11 11 11 10 10 9
3 4 4 4 2 2 1 3 1 2 4 3 3 2 2 3 4 5 7 8 7 5 5 4 5 8 9 9 5 4 4 2 3 6 8 9 10 12 16 21 24 27 30 31 32 32 33 34 36 38 37 36 36 35 36 35 33 32 28 26 25 24 24 24 23 22 20 18 16 14 12 11 10 9 8 6 4 3 2 3 4 6 7 8 10 11 10 10 11 12 12 13 13 13 13 12 11
3 3 5 4 4 3 3 3 2 3 3 3 3 2 2 2 2 5 6 6 5 4 3 6 9 10 9 10 9 7 5 5 3 3 5 6 9 14 19 22 24 27 30 32 33 33 33 33 36 37 37 37 38 37 37 36 35 33 30 28 27 26 25 25 25 24 22 20 18 16 14 12 11 9 8 7 6 5 5 5 5 6 7 8 10 10 10 10 11 12 12 12 13 13 13 13 13
3 2 5 2 4 5 2 2 4 3 1 2 2 2 3 4 2 6 5 4 5 4 6 11 11 10 12 12 11 9 7 5 5 3 1 3 4 9 15 20 24 28 29 30 32 33 33 34 36 37 38 39 39 39 39 38 36 35 32 30 29 28 27 26 26 26 24 22 19 17 15 13 11 10 9 9 8 7 7 7 6 7 7 8 10 10 10 11 11 12 14 14 13 13 13 14 14
1 1 2 3 3 6 4 1 0 3 1 3 1 2 5 2 2 6 6 7 8 8 10 12 9 9 13 10 8 9 9 7 5 4 4 2 1 5 9 13 17 22 26 32 35 37 38 37 37 37 36 36 38 39 39 39 38 36 34 32 30 30 29 28 28 27 25 23 21 19 17 15 13 11 11 10 10 9 8 8 7 7 7 8 9 10 11 11 12 14 15 15 14 14 14 14 14
4 2 4 2 1 4 4 1 3 4 1 4 1 2 4 2 1 5 8 9 9 9 9 9 9 10 11 8 7 7 7 9 8 6 4 3 4 6 9 11 12 13 18 25 32 36 38 37 36 36 35 36 39 39 39 39 38 37 36 34 32 31 30 29 28 27 26 25 23 21 19 16 14 13 13 11 10 10 9 8 7 7 7 8 9 10 11 11 12 14 15 14 14 14 15 14 14
4 4 2 2 1 1 1 2 1 0 2 3 3 3 3 3 4 1 4 4 5 7 7 8 9 9 7 6 7 7 7 9 9 8 7 5 3 2 9 13 13 14 16 18 21 23 26 29 32 34 36 38 39 39 39 39 39 38 37 35 33 32 31 30 29 27 27 26 25 23 21 19 16 16 15 13 11 10 10 9 8 8 9 9 10 11 11 12 13 14 15 15 14 14 15 16 16
4 2 3 2 2 3 0 1 2 2 2 2 3 3 2 5 5 5 4 3 2 3 4 5 6 6 6 6 6 7 7 8 7 7 7 7 9 9 3 9 16 17 17 17 17 18 22 25 27 29 33 34 34 35 37 37 39 39 37 36 35 33 33 32 30 29 28 27 26 24 23 21 19 18 17 15 13 12 11 10 9 8 9 10 11 11 12 12 13 14 15 15 15 15 16 16 17
2 3 3 2 1 2 0 0 2 3 2 2 1 2 4 5 3 6 6 5 4 3 4 3 2 3 4 6 7 7 7 7 7 7 8 8 11 16 16 8 7 14 15 15 16 19 22 22 24 27 28 28 30 34 36 38 40 40 38 37 36 35 33 32 31 29 28 27 26 25 24 23 21 20 19 17 15 13 12 10 8 8 8 9 10 12 12 12 13 14 14 14 15 15 16 17 18
3 2 1 2 2 2 1 2 1 1 2 3 3 2 5 5 2 3 5 5 5 5 3 4 3 4 4 5 6 6 6 7 7 8 8 8 11 16 20 18 11 4 9 13 15 17 19 21 24 25 25 26 30 33 35 37 37 38 39 39 37 36 34 32 31 29 28 27 26 25 25 24 23 21 20 18 16 14 12 9 7 7 7 9 10 12 12 12 12 12 13 13 14 15 16 17 18
Wind_Direction
310 308 297 289 308 315 338 76 55 324 87 99 259 256 258 235 225 275 293 304 30 341 336 48 63 71 98 107 143 120 65 125 162 161 200 200 151 157 160 164 172 169 168 164 161 162 164 165 164 165 164 163 160 156 154 153 152 152 152 150 146 141 134 132 131 127 122 121 126 126 125 125 122 121 121 122 123 125 125 124 121 118 114 111 109 113 113 105 109 118 117 117 119 121 121 122 123
316 307 292 293 319 328 255 83 93 328 48 342 279 184 252 290 256 238 226 170 99 79 67 78 75 76 92 101 129 102 47 22 93 134 99 139 145 155 163 167 170 168 167 164 163 164 165 166 166 166 165 165 163 160 159 157 156 155 156 154 152 149 140 136 134 131 125 122 126 126 127 128 127 125 124 124 126 128 128 128 125 120 116 113 111 115 116 109 112 119 119 118 118 122 123 123 124
320 305 309 297 334 46 61 42 97 87 86 246 274 227 267 311 265 256 203 141 123 117 96 94 81 68 68 60 28 49 64 359 86 101 111 136 143 159 167 166 166 166 166 164 165 167 165 165 167 168 167 167 166 165 164 160 159 160 160 158 157 155 148 142 138 136 128 125 127 127 127 129 131 130 129 129 133 135 133 132 128 123 119 116 114 117 119 114 115 120 121 119 121 124 123 125 125
325 317 334 37 46 30 60 51 145 126 141 213 281 275 251 312 326 1 122 127 129 118 99 96 60 2 50 89 62 45 104 101 105 119 126 143 158 163 163 163 164 165 165 167 168 167 164 164 166 169 168 169 171 170 169 165 163 164 164 163 162 160 155 148 143 140 133 128 128 130 129 130 133 133 132 133 138 137 133 134 131 126 121 118 116 119 121 118 119 120 121 121 123 126 125 127 128
331 331 338 91 88 17 95 93 132 123 190 187 110 269 192 81 53 66 88 114 142 118 114 129 92 19 67 96 146 89 116 117 117 124 115 137 157 157 159 162 163 164 165 170 167 165 165 163 164 169 167 168 174 173 172 170 167 168 167 168 167 166 162 155 151 146 138 133 130 132 133 131 135 136 134 136 140 135 135 139 137 130 124 121 119 120 122 121 122 121 123 125 126 128 129 130 132
338 19 68 69 100 184 112 132 196 184 230 176 176 253 149 69 60 94 70 54 33 26 169 155 132 130 91 56 61 104 147 132 119 125 123 138 152 155 158 162 164 165 166 167 163 166 166 162 163 167 167 168 172 171 174 175 172 173 171 170 171 171 168 162 158 154 145 138 134 134 136 136 138 140 136 138 140 138 139 142 141 134 126 123 123 121 122 124 125 125 128 131 133 134 135 135 137
4 51 42 55 24 41 105 178 207 227 245 185 205 260 219 81 90 104 86 50 36 6 192 146 137 122 103 103 67 58 127 133 134 139 140 145 154 156 159 163 164 163 164 163 160 168 165 161 161 164 166 167 170 169 174 178 177 177 174 172 173 175 172 167 163 159 152 144 139 139 140 140 142 143 142 142 144 148 147 146 147 139 129 125 123 119 122 126 127 131 134 136 138 139 140 139 141
32 69 23 92 39 16 101 219 235 216 241 222 237 268 274 130 128 146 209 240 155 165 136 153 153 101 55 75 83 54 100 126 140 141 144 147 156 157 161 164 163 161 162 160 160 167 159 155 158 159 161 164 169 167 172 178 178 180 179 175 170 173 173 169 166 162 157 149 144 144 144 144 147 148 146 147 149 156 152 148 147 141 133 128 124 117 123 129 128 133 138 138 141 142 143 143 144
40 53 33 91 111 14 35 305 273 236 246 255 259 269 279 221 161 192 216 249 216 168 156 185 203 102 114 78 94 85 95 128 139 142 146 149 156 158 163 166 164 161 157 158 161 160 148 151 154 150 152 155 159 160 168 173 175 180 183 180 172 171 170 167 167 165 161 154 150 149 148 149 152 152 151 152 153 155 151 144 143 141 136 129 127 121 123 134 132 134 141 142 144 148 148 147 147
32 27 110 79 104 27 333 290 259 259 250 243 254 258 265 251 191 196 205 204 199 165 149 140 85 118 129 101 104 126 124 137 137 141 149 150 156 159 161 165 166 160 155 157 155 149 144 150 150 147 147 145 151 155 165 169 171 177 183 185 178 176 173 169 169 168 166 160 157 156 154 157 158 158 159 160 156 154 152 144 144 142 135 128 128 126 127 137 139 137 141 144 147 155 157 154 155
33 344 94 78 69 110 269 259 262 270 266 272 271 257 248 246 196 198 183 159 203 165 135 99 96 121 114 99 89 135 139 139 137 143 151 152 156 159 160 162 165 160 155 151 147 148 147 148 146 146 145 143 149 152 159 164 167 173 181 184 180 182 179 172 170 169 170 167 165 163 161 163 162 163 164 165 159 155 156 152 150 144 138 133 129 132 132 136 144 147 145 147 149 155 163 164 165
78 327 69 95 127 193 214 229 271 279 285 291 271 264 230 190 168 184 159 153 185 168 171 143 132 127 97 91 115 136 143 142 143 147 152 154 156 159 160 160 163 160 152 149 150 153 151 147 142 140 141 140 141 144 151 154 159 166 176 183 177 182 182 173 170 171 173 173 170 167 165 166 165 166 166 166 163 161 161 159 156 150 145 141 134 136 138 134 141 155 155 153 152 154 162 167 168
121 170 89 117 190 179 223 243 278 307 302 272 242 271 218 149 174 181 162 156 163 163 214 167 142 125 92 117 131 145 151 150 148 149 154 155 156 158 157 158 162 159 152 155 157 158 154 149 144 139 139 139 136 136 142 147 153 160 171 182 171 173 179 174 171 172 176 176 170 165 165 168 168 169 168 167 167 167 167 166 162 157 150 144 140 140 143 139 140 157 163 160 155 153 161 167 166
155 165 114 164 241 157 230 257 304 356 290 268 259 287 274 205 192 174 147 144 168 173 153 137 133 105 103 132 144 172 161 157 153 152 156 155 157 158 156 158 160 158 156 162 162 158 153 148 144 137 136 139 142 140 141 147 154 159 165 178 174 171 174 172 172 175 178 175 168 165 166 169 171 172 169 169 171 170 167 165 162 159 157 152 148 145 146 148 146 156 165 168 161 154 161 168 167
177 139 99 120 319 321 233 217 279 198 265 274 291 309 308 289 170 155 149 148 183 186 116 133 133 92 154 173 173 185 163 159 156 152 153 150 153 154 154 156 158 158 159 166 165 158 150 145 142 135 135 137 145 148 147 150 155 162 162 171 179 175 172 174 178 179 179 175 169 167 168 172 173 176 174 174 175 171 165 162 162 163 164 160 153 148 150 156 154 157 166 173 169 159 161 169 170
161 101 74 66 260 262 231 205 282 235 258 271 290 310 1 10 74 142 166 140 136 159 121 152 223 120 175 185 162 163 159 157 154 150 148 145 146 145 148 151 155 159 161 168 168 163 155 151 149 141 142 140 146 152 153 156 158 163 163 168 179 179 178 180 181 181 181 175 172 170 171 178 179 181 180 182 181 172 169 164 164 169 169 161 150 147 153 160 161 161 168 174 175 166 164 170 175
88 83 79 35 224 214 218 202 235 245 279 293 315 327 108 47 23 93 42 83 125 144 89 83 317 77 161 153 142 150 153 153 149 146 142 139 140 139 143 148 153 158 163 171 172 169 165 163 162 156 156 153 154 157 158 161 162 164 166 170 179 185 184 180 180 183 183 177 175 174 177 189 190 187 184 187 184 175 176 168 163 170 170 160 150 153 159 164 165 166 169 173 176 172 170 173 177
85 93 113 180 225 212 197 199 221 185 305 301 314 320 130 117 80 70 59 62 100 101 58 60 39 53 112 124 137 145 148 148 147 143 138 137 138 136 141 149 153 158 165 172 175 175 171 169 170 168 167 165 166 166 165 167 168 170 173 177 180 187 188 183 186 188 187 183 181 180 187 199 198 192 189 187 184 179 183 175 167 168 169 167 163 163 168 173 171 170 170 171 174 175 176 176 178
126 123 123 211 219 216 205 214 251 218 287 301 305 306 205 139 133 99 106 112 109 91 68 75 76 85 106 121 136 142 145 146 145 142 140 143 143 141 144 151 155 160 167 172 174 174 171 169 171 166 160 164 173 173 172 177 178 178 182 186 185 188 194 194 196 196 194 191 187 188 194 201 199 195 194 192 190 185 184 180 174 167 169 178 176 171 174 181 179 174 172 171 174 176 176 174 174
173 137 170 240 221 236 245 233 255 230 233 318 313 318 21 160 134 93 126 127 126 132 137 121 117 128 128 133 139 142 144 144 146 145 147 151 149 149 150 154 158 162 166 167 168 169 170 167 163 160 155 157 168 176 182 186 186 190 191 191 191 193 201 200 203 205 199 196 195 198 199 201 198 192 200 202 199 196 186 183 183 172 172 182 181 174 173 180 183 178 175 175 179 179 179 176 170
212 157 190 239 206 235 260 239 259 257 161 271 303 32 72 295 11 118 133 121 139 194 183 159 149 150 145 149 149 146 146 145 150 150 152 156 152 154 157 158 161 163 163 163 162 163 166 165 161 159 160 158 164 176 185 193 195 200 200 195 195 198 204 201 203 207 203 201 201 205 201 195 196 186 192 200 198 201 192 184 184 176 176 183 183 177 172 178 182 179 178 180 184 185 184 182 173
209 227 203 232 202 234 265 247 263 274 208 201 42 76 113 331 92 148 145 145 194 204 194 166 153 156 156 155 152 148 147 150 155 154 158 160 155 157 160 161 162 163 165 165 163 163 166 169 167 164 168 169 172 183 189 201 207 207 205 200 199 202 208 206 205 206 211 212 203 205 196 184 192 185 193 206 198 198 193 186 184 181 184 189 185 180 174 177 181 179 179 182 188 191 187 183 174
221 272 231 236 210 222 266 263 276 283 180 117 107 129 25 41 135 173 173 194 217 188 177 168 160 160 156 151 150 152 155 159 161 161 164 162 157 158 159 161 162 165 168 168 166 165 169 173 174 173 175 179 183 195 202 211 213 210 209 206 206 208 212 213 214 211 218 226 206 198 190 185 197 193 206 222 203 192 189 188 188 187 190 191 185 183 178 174 178 177 179 186 189 188 183 178 174
202 265 270 257 217 222 258 265 297 307 213 274 87 97 62 104 158 172 275 265 255 165 157 158 153 148 144 145 150 155 158 160 163 164 165 164 159 154 154 156 158 162 163 165 168 170 171 172 174 177 180 186 190 199 209 216 213 210 210 209 211 215 219 219 218 213 213 232 219 193 193 205 216 207 214 227 214 200 193 188 188 191 192 190 185 184 180 173 176 178 181 189 189 184 183 183 184
214 236 265 270 236 237 257 258 265 261 241 268 67 68 75 181 143 118 279 287 257 142 125 124 128 132 139 147 152 156 157 155 156 157 160 161 154 147 147 148 150 153 153 155 162 165 170 172 175 180 186 192 195 199 209 214 212 213 218 220 217 215 221 223 221 219 213 218 217 206 211 225 230 222 222 230 228 218 200 188 188 193 193 189 185 183 181 176 176 178 182 189 191 189 191 193 202
222 223 254 266 259 250 252 252 236 223 241 211 93 68 303 261 91 52 288 305 193 127 116 128 136 142 146 150 157 160 158 154 154 154 155 155 149 143 141 142 144 146 145 146 149 152 159 165 169 175 180 186 191 196 204 209 211 218 227 232 227 219 222 226 223 222 220 216 213 217 223 230 237 234 233 232 230 226 202 190 192 197 195 191 189 183 180 182 182 181 182 188 196 202 205 211 228
226 235 265 261 254 252 239 244 229 203 235 142 129 141 287 313 37 242 293 22 132 119 123 146 148 153 152 154 166 164 161 161 161 153 149 150 148 144 141 141 142 143 145 145 146 147 151 157 159 162 165 169 176 182 190 195 200 208 218 225 227 224 223 226 225 225 225 221 217 222 227 232 241 239 233 228 224 221 202 196 200 201 201 198 194 190 186 189 192 193 194 198 210 220 228 237 250
266 267 287 290 267 248 166 196 239 197 180 139 122 115 322 341 299 219 223 141 147 136 142 161 159 160 155 159 169 169 168 164 161 153 149 155 154 149 148 147 144 146 150 149 149 151 154 157 154 156 158 158 161 162 163 163 160 163 177 200 212 214 216 221 222 222 221 219 216 218 225 233 241 241 236 231 226 218 203 202 206 205 207 205 200 199 198 199 201 206 209 214 226 236 245 251 257
292 289 275 316 6 278 212 182 251 180 192 193 120 39 332 316 278 225 154 148 161 148 154 169 170 165 156 163 169 168 164 160 162 160 157 160 158 155 153 153 151 151 153 153 154 155 156 157 156 158 159 157 157 153 148 145 144 143 136 138 153 169 194 211 209 200 200 205 207 211 222 234 240 242 242 235 226 223 212 208 209 208 210 213 210 209 210 210 212 216 218 224 234 243 253 258 263
314 351 134 323 16 334 264 355 324 137 198 210 131 26 292 271 276 277 142 144 152 157 168 175 173 166 156 162 165 166 164 162 168 166 162 161 160 158 156 156 159 158 156 157 159 157 156 157 158 161 162 162 159 153 150 150 151 151 146 135 126 122 131 173 193 186 175 175 180 190 209 226 235 240 243 233 219 224 222 215 214 211 212 218 220 218 218 219 222 229 230 234 242 250 257 260 266
329 333 43 15 43 283 299 330 285 172 257 31 103 158 259 267 278 270 205 152 153 178 184 177 174 167 153 163 168 170 170 168 171 167 166 164 161 160 159 159 163 164 162 162 163 161 157 157 159 161 164 167 161 157 157 157 160 158 156 151 140 125 115 124 150 163 160 158 164 172 187 204 214 226 236 233 224 222 222 222 220 218 218 223 226 224 225 225 226 236 239 244 250 256 261 264 267
7 346 328 350 86 275 302 302 195 198 294 42 95 159 268 271 260 251 220 166 165 188 194 186 184 175 160 169 169 161 155 156 169 172 169 166 163 163 163 163 166 169 168 166 165 162 161 162 164 163 164 166 163 161 159 156 159 157 157 162 160 143 118 116 117 129 144 147 160 176 187 196 198 211 234 238 235 222 219 225 222 221 223 226 231 230 230 231 229 235 241 248 256 262 267 269 269
357 68 260 308 14 325 314 325 257 237 289 360 124 176 262 276 242 232 222 187 179 189 203 203 195 186 172 168 165 155 149 149 170 183 177 170 168 167 167 169 172 174 174 170 166 165 167 168 171 171 167 167 165 161 160 155 149 143 134 143 156 152 121 122 127 124 124 121 126 153 185 203 209 212 225 238 246 237 228 230 225 221 220 220 233 237 233 233 232 236 241 246 257 269 275 276 273
319 28 60 286 318 345 327 320 313 353 223 241 222 192 235 273 265 251 243 199 192 197 203 205 194 187 183 165 164 163 164 169 181 191 185 177 172 171 171 173 175 176 176 173 171 172 173 173 176 175 171 172 169 164 163 157 148 138 124 124 138 147 133 131 141 137 130 126 126 134 171 189 194 211 220 221 235 238 225 231 227 220 216 209 223 237 236 234 233 237 242 241 248 268 277 276 269
246 313 53 329 323 355 314 285 306 360 287 237 213 237 253 269 297 311 276 170 192 213 211 211 200 183 182 173 173 175 174 184 191 191 186 180 176 174 173 174 176 177 175 173 173 174 173 174 178 177 175 174 170 166 162 154 148 139 130 131 140 142 132 130 142 147 145 145 138 131 149 168 174 201 222 221 217 199 183 242 230 218 213 209 216 225 229 229 227 231 239 240 247 266 275 273 272
177 177 138 120 17 305 280 261 280 3 360 284 218 241 267 268 300 311 301 91 178 207 194 205 216 194 188 184 181 181 186 196 196 188 185 183 180 177 175 175 176 175 173 172 172 172 170 171 177 179 177 173 168 164 157 152 149 145 142 142 141 137 133 136 149 159 163 164 156 152 156 158 162 174 190 217 268 311 358 358 277 227 208 198 227 227 225 226 224 227 235 241 247 259 267 274 281
129 113 118 119 105 295 288 274 300 12 101 319 255 234 293 276 282 284 290 342 342 191 166 181 202 203 200 196 192 190 195 196 185 184 187 187 183 179 177 175 174 172 172 174 172 171 169 171 177 179 178 174 170 164 158 155 153 151 151 149 144 141 143 151 163 172 179 187 190 189 185 174 167 164 158 159 156 4 33 39 318 266 236 169 132 161 213 230 231 235 237 240 243 249 258 268 279
93 114 103 20 219 268 278 258 305 349 113 301 302 21 298 274 270 280 303 331 300 215 180 190 200 206 205 200 199 192 186 160 155 180 190 189 185 182 180 176 174 173 174 176 173 170 170 172 176 177 177 177 174 169 164 161 160 158 157 154 150 143 140 144 151 156 163 177 184 186 192 195 188 177 164 161 167 155 94 97 93 310 241 195 182 130 101 109 223 256 247 249 253 256 261 257 253
79 101 85 347 265 285 298 289 312 358 97 291 324 20 290 275 271 279 287 263 258 239 201 193 195 211 221 211 203 181 164 158 164 181 192 191 186 182 182 180 179 178 176 176 174 171 170 172 175 175 175 176 176 174 171 169 167 167 164 157 150 142 139 140 141 142 135 134 154 165 172 186 206 184 153 147 150 148 132 113 101 98 114 124 126 109 94 90 78 42 358 304 284 274 275 266 255
84 111 116 274 269 304 290 298 318 346 45 240 21 20 298 296 302 279 271 253 271 284 252 203 180 199 216 212 206 186 176 178 181 187 191 186 180 184 188 186 183 181 177 176 176 174 172 174 175 175 173 173 176 178 178 177 176 176 176 168 156 148 150 153 155 165 174 169 163 168 177 200 276 146 134 130 132 133 132 126 108 100 93 84 79 83 82 80 76 59 32 19 360 304 292 285 272
294 175 156 198 232 210 221 280 329 345 5 45 74 19 317 316 318 285 301 338 309 308 305 268 206 198 208 209 209 202 192 188 186 186 184 179 184 191 192 188 185 184 181 180 181 177 174 177 178 176 174 174 177 180 182 186 185 185 185 177 165 159 160 164 170 181 192 197 189 185 176 78 114 148 137 129 134 137 135 141 136 127 104 78 68 70 75 73 72 70 51 37 39 23 337 315 298
306 248 198 191 193 202 233 337 18 25 346 345 51 13 294 315 317 274 297 339 307 311 319 284 258 203 185 201 206 201 201 201 194 186 183 188 194 192 187 187 189 190 189 187 184 179 177 179 181 179 178 177 179 183 188 193 193 187 183 179 174 171 173 176 177 179 189 198 196 190 145 92 98 150 159 150 145 148 149 152 149 138 132 102 80 73 78 70 62 65 60 50 49 42 23 6 352
312 247 200 174 143 133 150 129 83 95 261 300 48 152 255 316 317 267 285 317 297 301 302 280 278 251 191 200 205 197 196 197 196 196 193 195 193 184 183 191 194 196 195 190 184 181 180 182 183 183 182 181 182 187 193 199 196 187 184 183 182 182 183 181 177 177 185 200 206 195 158 120 102 130 156 154 137 140 144 140 127 121 117 105 92 81 77 70 62 59 55 52 51 43 31 29 19
238 234 161 141 131 142 164 150 137 192 236 316 14 110 209 304 277 263 298 314 291 293 287 274 274 263 229 211 209 200 195 189 187 195 198 200 194 187 190 195 197 197 195 190 185 185 185 185 186 187 186 185 186 190 197 202 197 188 187 188 188 191 192 183 178 181 186 202 212 196 172 159 136 134 148 153 142 141 146 134 129 133 122 101 86 75 70 66 62 57 50 47 46 41 34 30 25
240 208 140 145 148 150 143 127 149 223 75 308 322 44 147 280 271 287 343 310 279 278 274 273 270 265 245 221 212 202 197 190 186 191 195 198 197 196 197 196 197 197 195 192 189 188 188 188 189 191 191 189 189 194 200 201 195 190 189 192 192 195 195 186 182 186 190 197 202 189 175 171 166 157 156 164 167 149 111 103 114 123 112 91 80 75 67 56 45 38 32 29 27 33 35 32 28
231 152 108 62 68 93 98 114 143 57 61 245 269 250 154 272 278 301 3 271 262 265 268 269 269 270 259 235 218 194 191 193 192 194 195 199 200 199 199 196 196 197 196 194 190 189 190 190 192 194 194 193 192 196 198 195 193 191 192 194 196 196 193 189 189 192 196 196 193 187 179 172 173 176 175 177 196 95 76 87 90 91 86 74 66 58 49 39 31 25 19 15 11 13 17 22 26
135 102 76 35 31 42 47 76 103 65 330 252 245 199 140 311 282 254 204 221 233 261 283 287 288 293 288 264 230 180 178 187 196 199 198 201 199 194 192 191 193 196 196 193 191 193 192 191 194 196 197 196 195 197 196 193 193 195 195 196 199 198 195 194 194 195 198 197 192 187 183 179 178 186 195 201 224 105 91 84 74 67 57 46 39 31 23 18 15 10 4 360 359 2 2 3 8
92 85 76 64 339 11 19 357 41 100 263 260 242 197 118 103 268 253 250 261 254 250 274 292 301 305 306 293 262 187 184 182 185 194 198 192 179 173 180 183 187 191 194 195 195 196 194 193 195 198 199 199 198 197 197 197 197 198 199 199 201 200 200 201 200 200 201 199 194 188 186 186 186 188 198 208 212 184 143 85 48 35 26 22 17 14 15 16 12 5 359 354 352 353 356 356 359
82 96 83 85 330 5 349 299 334 208 251 257 227 193 114 231 252 264 272 280 283 268 272 296 304 311 320 323 327 92 166 190 184 184 185 181 176 178 178 176 181 189 195 198 198 197 197 196 197 198 201 201 199 198 199 201 202 201 201 202 202 201 203 206 207 208 207 204 198 195 194 193 193 194 196 204 213 201 191 356 5 3 4 4 3 6 11 15 12 7 4 360 356 353 351 352 353
137 143 121 125 120 60 279 269 290 254 266 276 235 213 281 282 274 278 277 286 305 323 325 343 4 360 354 351 8 77 89 111 196 194 183 183 190 188 182 181 185 191 196 198 199 200 199 197 198 199 201 202 200 199 202 205 206 205 203 203 203 202 205 209 212 215 214 210 207 207 209 207 204 205 200 202 219 228 248 298 326 338 345 347 350 358 5 8 6 4 3 359 355 352 348 346 344
200 173 130 140 153 153 225 227 201 247 275 303 291 226 188 215 274 290 288 299 335 5 10 47 51 40 34 24 22 46 79 101 125 204 215 210 203 193 188 188 191 195 197 198 200 201 200 199 200 200 201 202 202 201 203 205 208 208 206 205 205 205 207 210 214 219 220 215 213 213 216 216 216 216 211 212 225 233 246 268 292 312 321 327 338 349 355 358 359 358 357 354 349 345 343 343 342
264 166 108 150 183 156 178 195 176 190 261 309 286 235 220 204 263 322 328 348 15 34 48 51 42 38 50 39 26 35 45 73 107 123 236 291 265 223 203 196 197 197 197 199 202 203 203 202 202 202 202 203 203 203 204 206 209 210 208 207 206 206 208 210 213 218 221 219 217 218 219 220 222 222 218 223 232 235 240 253 271 291 302 313 329 339 344 347 351 352 351 349 348 345 342 340 339
242 95 150 230 187 126 119 252 337 84 105 278 266 254 292 334 20 344 2 25 16 17 41 48 33 34 51 42 21 33 39 47 74 108 135 140 208 248 240 226 216 207 201 201 203 204 206 205 203 203 203 204 205 205 205 207 209 210 210 209 208 208 208 210 212 215 219 219 219 221 222 220 221 222 222 227 234 236 239 248 263 279 292 309 326 333 335 338 342 344 345 347 349 347 346 344 341
118 150 220 230 52 87 109 131 8 46 180 276 294 226 282 336 295 325 5 27 14 3 19 36 33 34 42 35 18 20 34 46 50 59 77 113 154 200 236 251 254 243 225 215 211 210 209 207 205 203 203 205 206 206 207 208 209 210 211 211 211 211 211 212 213 215 218 219 218 218 218 218 219 222 224 226 229 233 240 250 261 277 294 310 323 328 329 333 335 337 341 346 347 346 344 344 343
108 158 188 108 105 301 24 98 127 62 232 280 309 277 254 226 215 305 20 27 15 357 360 22 32 30 23 20 22 15 24 42 42 41 41 41 62 204 228 233 243 249 247 240 233 227 220 214 210 207 206 208 208 207 207 208 210 212 213 213 213 214 214 214 214 215 217 219 218 217 215 216 218 220 222 225 227 230 238 248 259 277 295 309 318 322 325 328 329 332 336 339 341 339 336 336 336
26 60 33 41 135 158 125 115 161 191 216 247 302 314 274 234 202 151 152 182 131 42 23 27 22 14 3 360 13 17 23 38 41 38 33 28 29 24 330 240 235 234 238 244 242 238 233 227 221 215 212 211 209 208 208 209 211 213 214 214 215 215 215 215 215 216 218 218 218 217 215 214 215 218 219 222 226 231 238 246 258 275 292 306 313 316 318 319 321 326 330 331 333 332 329 328 329
17 34 21 3 48 102 95 360 122 143 172 191 230 285 270 257 212 157 163 181 172 143 87 59 28 24 5 344 354 7 17 28 35 40 35 26 28 30 30 14 263 238 235 238 238 238 239 236 231 226 220 214 212 211 210 211 213 213 213 214 214 215 215 215 217 218 218 217 216 215 214 212 212 214 215 216 222 228 235 243 256 276 290 300 306 306 306 308 315 323 326 328 330 329 327 326 326
148 138 149 152 140 109 95 295 302 109 160 176 162 227 268 270 253 186 169 176 197 184 122 59 26 38 34 2 355 2 16 24 26 33 36 31 28 30 35 37 26 315 252 239 236 239 242 239 236 233 228 222 218 214 213 214 214 213 214 214 214 214 213 213 215 217 216 214 213 213 211 210 209 209 210 213 217 220 225 236 252 272 285 291 295 295 296 304 315 322 326 330 331 329 327 327 326
Height
772 773 773 772 771 771 772 772 782 786 788 798 797 793 779 770 770 767 766 761 761 763 757 756 755 757 763 768 770 769 771 774 779 790 790 775 770 775 776 778 780 782 784 785 786 787 788 789 790 791 792 793 793 794 795 796 798 798 799 800 801 802 803 804 805 805 806 807 807 807 808 808 809 809 810 810 811 811 812 812 812 812 812 812 812 813 813 814 814 814 814 815 816 817 818 818 818
772 773 772 772 771 771 775 775 788 795 793 797 795 790 777 768 770 766 765 763 764 763 757 758 759 762 764 765 766 767 772 774 773 774 774 771 773 776 777 779 781 782 784 785 786 787 788 789 790 791 792 793 794 794 795 796 798 799 800 801 802 803 804 805 805 806 807 808 808 809 809 809 810 810 811 812 812 812 813 813 813 813 813 813 813 814 814 815 815 815 815 816 817 818 819 819 819
772 772 771 771 771 772 777 777 790 799 796 795 788 782 775 770 769 764 762 761 761 759 758 760 762 765 766 769 768 771 777 775 772 772 772 773 774 776 778 779 782 784 784 786 787 787 788 789 790 791 792 793 794 795 796 797 798 799 800 801 803 804 805 805 806 807 807 808 809 810 810 811 811 811 812 812 813 813 813 814 814 814 814 814 814 814 815 815 816 816 816 817 818 819 819 820 820
771 771 771 770 773 774 779 784 791 796 795 797 787 774 772 771 768 764 761 759 758 756 759 762 766 766 767 774 773 775 779 775 772 771 773 775 775 776 778 781 783 784 785 786 787 788 789 790 791 792 793 794 794 796 796 797 798 800 801 802 803 804 805 806 807 807 808 808 809 810 811 812 812 813 813 813 814 814 814 815 815 815 815 815 815 815 816 816 816 817 817 818 819 820 820 821 821
771 771 771 770 776 778 781 789 794 795 791 792 784 770 770 767 766 767 763 761 758 758 761 763 770 769 767 773 773 777 778 775 773 771 772 775 776 778 780 782 783 785 786 787 788 789 789 790 791 792 793 794 795 796 797 798 798 800 801 802 803 804 805 806 807 808 808 809 810 811 812 813 813 814 814 814 815 815 815 816 816 816 815 816 816 816 817 817 817 818 818 819 820 821 821 822 822
771 770 770 770 775 776 783 792 795 796 786 784 779 767 768 765 764 767 765 763 760 760 761 764 769 769 773 773 771 775 774 774 774 772 772 774 777 779 781 782 784 786 787 787 788 789 790 791 792 793 793 794 795 796 797 798 799 800 801 802 803 804 805 806 807 808 809 809 810 811 812 813 814 815 815 815 815 816 816 817 817 817 817 817 817 817 818 818 818 818 819 820 821 821 822 823 823
770 771 772 774 777 778 790 795 793 795 784 779 776 764 765 767 764 766 768 767 765 763 763 764 762 768 778 774 773 773 770 772 772 773 773 774 777 779 782 783 785 786 787 788 789 790 791 791 792 793 794 795 796 797 798 798 800 800 801 803 804 805 806 807 808 809 810 810 811 811 812 813 814 815 815 815 816 816 817 817 818 818 818 818 818 818 819 819 819 819 820 821 822 822 824 824 824
769 772 775 778 784 786 794 796 793 792 782 775 772 764 764 766 765 766 769 769 769 767 765 765 760 770 780 774 778 776 770 772 771 773 774 775 778 779 782 783 785 786 788 789 789 791 791 792 793 793 794 795 796 797 798 799 800 801 802 803 804 806 806 808 809 810 810 811 811 812 813 813 814 814 815 815 816 817 817 817 818 819 819 819 819 820 820 821 820 821 821 822 823 824 825 825 826
769 772 777 781 788 792 795 796 793 787 780 774 770 764 762 763 764 765 767 768 768 766 765 764 759 771 780 777 780 776 772 774 772 774 775 776 778 779 782 784 786 786 788 789 790 792 792 793 793 794 795 796 797 798 799 800 801 801 802 803 804 806 807 808 809 810 811 811 812 812 813 813 814 814 815 815 816 817 817 817 819 820 820 819 820 820 821 822 822 822 822 823 824 825 826 826 827
771 774 778 784 790 795 798 795 790 783 777 772 768 763 760 760 762 763 763 766 766 766 765 761 761 770 779 781 782 776 774 774 773 776 776 777 778 780 783 784 786 786 788 790 791 793 793 793 793 795 795 796 798 799 800 800 801 802 802 803 804 806 807 808 809 811 811 812 812 813 813 813 814 815 815 815 816 817 818 818 819 820 821 820 821 821 822 823 824 823 823 824 824 825 826 827 828
775 777 778 788 794 797 798 792 786 781 774 770 766 759 757 757 760 762 761 765 766 767 764 761 768 773 777 783 782 777 775 775 774 776 777 778 779 781 783 785 787 787 789 791 793 793 793 794 794 795 796 797 798 799 800 801 802 802 803 804 805 806 807 808 809 811 811 812 812 813 813 814 814 815 815 816 816 817 818 819 819 820 821 821 822 822 822 823 825 824 824 824 825 826 827 828 828
778 781 780 790 796 794 794 792 785 779 775 771 765 753 751 755 759 761 761 765 766 768 764 762 768 770 779 787 782 778 777 777 776 776 778 778 780 781 783 785 787 788 790 792 793 793 794 794 795 796 797 798 799 800 801 801 802 803 803 804 806 806 807 809 809 811 811 812 813 813 814 814 815 815 816 816 817 818 818 819 820 820 821 822 822 823 823 824 825 825 825 825 825 826 827 828 828
778 782 783 789 794 792 791 791 783 780 777 768 761 750 748 754 755 755 758 763 765 769 765 759 762 766 781 787 781 779 778 778 777 777 778 779 780 782 784 786 788 790 791 792 793 794 794 795 796 797 797 799 799 800 801 802 802 803 804 804 806 807 808 809 810 811 812 812 813 813 814 814 815 816 816 817 818 818 819 819 820 820 821 822 823 823 823 824 825 826 826 826 825 826 827 828 829
775 778 781 788 793 789 787 786 781 784 778 763 758 750 747 750 749 749 755 764 767 766 762 757 758 767 782 787 785 782 778 779 778 778 779 780 781 783 785 786 789 790 792 793 793 794 795 796 797 797 798 800 800 801 801 802 803 804 805 805 806 807 808 809 810 811 812 813 813 814 814 815 816 816 817 817 818 819 819 820 820 820 821 822 822 823 824 824 825 826 826 826 826 826 827 828 829
773 776 780 786 791 788 785 784 781 785 776 761 756 750 749 747 744 748 751 761 766 759 758 759 757 766 778 781 783 779 776 778 778 779 779 781 782 784 786 787 789 791 792 793 794 795 796 797 797 798 799 800 801 801 802 803 803 804 805 806 806 807 809 810 811 812 812 813 814 814 815 816 816 817 817 818 818 819 820 820 820 821 821 822 822 823 824 824 825 826 826 826 826 826 826 828 829
772 775 782 788 791 790 785 782 781 782 772 760 754 750 753 749 744 750 748 750 759 758 758 762 759 762 769 770 771 771 774 778 778 780 780 782 783 785 787 788 790 791 792 793 794 795 796 797 798 799 800 800 801 802 803 803 804 805 806 806 807 808 809 810 811 812 813 813 814 815 816 816 817 817 818 818 818 819 820 820 821 821 821 822 822 823 824 824 825 825 826 826 826 826 826 828 829
770 774 785 791 791 790 784 780 778 776 767 758 754 750 755 754 748 749 747 748 756 760 760 763 761 759 763 765 766 769 774 777 779 780 780 782 783 785 787 788 790 791 793 793 794 795 796 797 798 799 800 800 801 802 804 804 805 805 806 807 808 809 809 810 811 812 813 814 814 815 816 817 817 817 818 818 819 819 820 820 821 821 821 822 822 823 824 825 825 825 825 826 826 827 826 827 829
772 780 789 792 789 785 778 773 770 769 766 760 755 752 754 755 753 750 751 757 759 762 764 764 764 762 763 766 768 772 775 777 779 779 780 781 782 784 786 788 790 791 792 793 794 795 796 797 798 799 800 801 802 803 804 804 805 806 807 807 808 809 810 811 811 812 813 814 815 815 816 816 817 817 818 819 819 819 820 820 821 821 821 822 822 823 824 825 825 825 825 825 826 826 826 827 828
773 782 789 787 781 776 770 767 764 765 765 761 756 753 754 753 753 752 757 765 764 766 770 768 769 769 768 769 771 774 776 777 779 779 780 780 781 783 785 787 789 790 792 793 794 795 797 798 798 799 800 801 802 803 804 804 805 806 807 808 808 809 810 811 811 812 813 814 815 815 815 816 817 817 818 819 819 820 820 821 821 821 821 822 822 822 823 824 825 825 825 825 825 826 826 827 828
773 779 785 780 773 770 766 763 761 761 762 760 757 754 755 754 751 753 759 767 766 767 770 770 773 773 771 772 773 774 776 778 779 780 781 781 782 782 784 786 788 790 791 792 794 795 797 798 799 800 801 802 802 803 804 805 806 806 807 808 809 810 810 811 811 812 813 814 815 815 815 817 817 817 818 819 820 821 821 821 822 821 822 822 822 822 822 823 824 825 825 825 825 825 826 826 827
773 775 779 773 768 769 762 759 758 757 759 759 758 756 757 754 752 756 760 768 772 768 763 762 767 770 770 772 772 773 775 777 779 780 781 782 783 783 784 786 788 790 791 793 794 796 797 798 799 800 801 802 802 803 804 805 806 806 807 808 809 810 810 811 811 812 812 813 814 815 816 817 817 817 818 819 820 821 821 822 822 822 822 822 822 822 822 823 824 824 825 825 825 825 826 826 827
772 771 770 766 767 768 759 756 757 755 757 758 757 757 757 754 755 759 759 764 766 761 757 756 759 761 763 767 770 773 775 777 779 780 781 782 783 784 785 787 788 790 792 793 794 796 797 799 800 801 802 802 803 804 804 805 806 807 807 808 809 810 810 811 811 812 812 813 814 815 816 816 817 817 817 818 818 819 821 822 822 823 823 823 822 822 822 823 824 824 825 825 825 825 826 826 827
773 770 765 764 766 766 758 756 756 755 756 756 755 756 755 756 759 760 758 759 756 752 753 754 754 755 757 762 768 772 774 776 778 779 780 781 783 784 785 787 788 790 792 793 795 796 797 799 800 801 802 802 803 804 804 805 806 807 808 808 809 810 811 811 812 812 812 813 813 814 815 816 816 816 817 818 818 819 820 821 822 822 823 823 823 823 823 823 824 825 825 825 825 826 826 826 827
772 771 764 762 763 763 758 756 757 756 756 754 753 753 755 759 760 760 758 756 754 752 753 755 755 757 760 764 768 771 774 776 778 780 780 781 782 783 785 786 788 790 792 793 795 796 798 799 800 801 802 803 803 804 804 805 806 807 808 809 810 810 811 811 812 812 813 813 813 814 815 815 815 816 817 817 818 819 819 819 820 822 823 823 823 824 824 824 824 825 826 826 826 826 827 827 827
771 769 763 760 761 759 756 756 757 757 756 753 753 754 756 757 757 758 758 756 754 753 755 758 760 762 765 767 770 772 774 777 779 781 782 783 784 785 786 787 788 790 792 793 795 796 798 799 800 801 802 803 803 804 805 805 806 807 808 809 809 810 810 811 812 813 813 813 814 814 814 815 815 816 817 817 816 817 818 818 819 821 822 823 823 823 824 825 825 825 826 827 827 827 827 827 828
767 765 763 760 759 756 755 755 755 756 755 752 754 758 757 754 756 758 757 755 755 754 757 760 762 765 768 770 771 772 774 777 779 781 782 784 784 785 787 788 789 790 792 794 795 797 798 799 800 801 802 803 803 804 805 805 806 807 808 809 809 810 810 811 812 812 813 814 814 814 814 814 814 815 816 816 816 816 817 818 819 820 821 822 822 823 824 825 826 826 826 827 827 828 828 828 828
762 763 761 760 758 755 755 754 754 755 754 751 753 758 757 754 757 759 756 755 755 757 760 761 763 766 768 771 772 772 774 776 777 779 781 784 785 786 787 789 789 791 793 794 795 797 798 799 800 801 802 803 803 804 805 806 807 807 808 808 809 810 810 811 812 812 813 813 814 814 813 813 813 814 816 816 816 817 817 817 818 819 820 821 822 822 823 824 825 826 827 827 828 828 828 828 828
760 761 761 759 757 756 756 755 754 754 754 752 751 756 758 756 757 757 756 756 756 758 762 763 764 766 769 771 772 773 774 775 776 777 779 781 783 785 787 788 789 791 792 794 795 797 798 799 800 801 802 802 804 804 805 806 807 807 808 808 809 809 810 811 811 812 813 813 813 813 813 813 813 814 815 815 816 817 817 817 817 818 818 820 821 822 822 823 825 826 826 827 828 828 828 829 829
759 759 762 760 758 757 755 754 754 754 754 751 751 760 763 759 758 756 756 757 757 759 762 764 765 767 770 771 772 773 774 775 776 776 777 779 781 783 785 787 788 790 792 793 795 796 797 799 800 801 802 803 804 805 806 807 807 808 808 808 809 810 810 810 811 812 812 813 813 813 813 812 812 813 813 814 815 816 816 816 817 817 818 819 820 821 821 822 824 825 825 826 827 828 828 828 829
759 759 762 762 762 762 757 755 756 754 755 750 754 772 771 760 760 758 757 758 760 763 763 763 765 767 770 772 773 774 774 775 776 776 777 779 780 782 783 786 787 788 791 793 794 796 797 798 799 801 802 803 804 805 806 807 807 808 808 809 809 810 810 810 811 812 812 812 813 813 812 812 812 812 812 813 814 814 815 815 816 816 817 818 819 820 821 822 823 824 825 825 826 827 828 828 828
762 762 764 771 772 768 760 759 759 756 757 751 755 775 770 758 760 760 758 759 762 765 764 764 766 768 770 772 773 774 775 775 775 776 777 778 780 781 783 785 787 788 789 792 793 795 796 798 799 800 802 803 804 805 806 807 808 808 809 809 810 810 810 811 811 812 812 813 812 812 812 812 812 811 812 812 813 814 814 814 815 816 817 818 818 819 820 821 822 823 824 825 826 827 827 827 828
769 770 772 778 778 772 763 760 760 758 757 753 758 772 768 758 759 758 759 760 761 765 765 765 766 768 770 772 773 774 776 777 777 778 778 778 779 780 782 783 785 787 788 790 792 794 796 797 798 800 801 802 804 805 806 807 808 809 809 810 810 811 811 811 812 812 813 813 812 812 812 812 812 811 812 812 813 814 814 814 814 815 817 818 818 819 820 820 821 822 824 825 826 826 826 826 826
775 778 778 779 777 776 768 760 759 759 759 756 759 767 766 758 755 757 760 760 760 764 765 765 766 768 770 771 773 775 776 778 779 779 778 778 778 779 780 782 783 785 786 788 790 792 794 796 798 799 800 802 803 805 806 807 808 809 809 810 811 811 812 812 812 813 813 813 813 813 813 813 813 812 812 813 814 814 814 814 815 816 817 817 818 818 818 819 821 822 823 824 825 825 825 825 825
780 781 780 783 782 779 775 766 760 759 761 761 760 763 763 757 754 757 760 760 761 763 763 763 765 767 770 771 773 774 775 777 776 776 776 776 777 778 779 781 783 784 785 787 788 791 793 795 797 799 800 802 803 804 805 807 808 809 810 811 811 812 812 812 813 813 813 814 814 814 814 814 814 813 813 813 814 814 814 814 815 816 817 817 818 818 818 819 820 822 822 823 824 825 825 825 824
783 782 781 785 784 780 779 772 763 761 763 764 765 767 763 758 756 756 759 761 762 762 763 764 765 766 768 771 772 773 774 774 772 771 773 776 776 778 779 781 782 784 785 786 788 790 792 795 797 799 800 802 803 804 805 806 808 809 810 811 812 812 812 813 813 814 814 814 814 814 814 814 815 814 814 814 814 814 814 814 814 815 816 817 817 817 817 818 819 820 821 822 824 824 824 823 823
778 780 781 784 782 779 777 771 765 766 769 768 770 770 766 762 760 757 757 760 761 761 763 765 767 767 767 770 771 772 773 770 769 771 774 776 776 778 779 781 782 783 785 786 788 790 792 794 797 799 800 802 803 804 805 806 808 809 810 811 812 812 813 813 814 814 814 815 815 815 815 815 815 815 815 814 814 815 814 814 814 814 815 816 817 817 817 817 818 819 820 821 822 823 822 821 821
777 778 780 783 784 778 773 768 764 766 770 772 773 771 768 765 762 759 757 758 758 760 763 764 766 767 767 769 769 770 770 769 770 773 775 776 778 779 779 781 782 784 785 786 787 789 791 793 796 798 800 802 803 803 804 805 807 808 810 811 812 812 813 813 814 814 815 815 815 816 816 816 816 816 816 815 815 815 815 815 815 814 815 816 817 817 817 817 818 818 818 819 821 822 821 819 819
776 777 778 782 784 778 772 768 766 767 769 773 775 769 766 764 760 758 757 756 755 756 761 764 764 765 764 765 767 768 769 770 772 774 776 777 779 779 780 781 781 782 784 785 786 788 790 793 795 797 798 801 802 804 805 805 806 808 809 811 811 812 813 813 814 814 815 815 815 816 816 816 817 817 817 816 816 816 817 817 816 816 816 816 817 817 817 817 817 817 817 818 819 820 819 818 819
776 778 779 780 782 779 773 768 767 769 767 771 773 769 765 762 760 758 757 756 754 754 758 761 763 765 766 765 765 768 770 771 772 773 775 776 777 779 780 780 780 781 782 784 786 787 789 792 794 797 798 800 802 803 805 806 806 808 809 811 812 813 813 814 814 814 815 815 816 816 817 817 817 817 817 817 818 818 818 818 818 817 817 817 817 817 817 817 817 817 817 817 817 817 817 817 818
776 778 779 781 783 783 778 771 768 769 769 771 772 771 769 763 759 757 756 759 756 754 755 758 761 761 762 763 763 766 768 768 770 771 772 775 777 779 778 778 780 781 782 783 785 786 788 791 793 796 797 799 801 803 804 806 807 808 809 811 812 813 813 814 814 815 815 815 816 817 817 817 817 818 818 818 818 819 819 819 819 818 818 818 818 817 817 818 818 819 818 817 816 816 817 816 818
778 777 777 778 778 779 779 776 771 770 773 774 772 775 774 768 765 758 756 763 759 755 755 754 757 758 759 761 762 764 765 764 766 767 770 773 774 774 775 777 779 780 781 780 781 783 786 789 792 795 796 798 800 802 804 805 806 807 808 810 812 813 813 814 814 814 815 815 816 817 817 817 818 818 818 819 819 819 819 819 819 819 819 818 818 818 818 818 819 820 819 818 817 817 817 817 818
780 776 772 772 773 776 779 779 778 778 780 778 779 785 782 774 772 764 758 761 758 757 758 752 752 757 759 760 760 761 763 763 764 764 766 768 769 771 774 777 778 778 778 778 779 781 785 788 791 793 795 797 799 801 803 804 805 806 807 809 810 811 812 813 814 814 815 815 816 817 817 817 818 818 818 819 819 819 820 820 820 819 819 819 819 819 819 819 819 819 819 818 817 817 817 817 818
782 773 768 771 774 777 780 780 782 786 787 784 783 789 788 779 772 764 760 761 757 756 757 753 750 753 756 757 756 757 758 761 763 764 764 765 767 771 773 774 774 774 776 778 780 782 784 787 790 792 794 795 798 800 801 803 804 805 805 806 808 810 811 812 813 814 815 816 816 817 817 817 818 818 818 819 819 820 820 820 820 820 819 819 819 819 819 819 819 819 818 818 818 818 817 817 818
778 770 767 771 773 775 778 779 781 785 785 785 785 786 791 788 773 764 766 766 760 755 754 752 750 750 752 753 752 753 753 755 759 762 763 763 765 767 768 769 770 772 775 778 780 781 784 787 789 792 793 795 796 798 800 801 802 804 804 805 807 808 810 812 813 814 815 815 816 817 817 818 818 818 818 819 819 820 820 820 820 820 820 820 819 819 819 819 819 819 819 818 818 818 818 817 818
769 767 769 771 771 774 776 778 782 788 788 786 787 788 795 794 775 767 773 770 763 758 752 750 747 745 747 748 748 749 750 751 753 756 758 759 762 763 763 765 768 771 774 775 777 780 783 786 789 791 793 794 795 797 799 800 801 802 803 804 806 808 810 811 812 813 814 815 816 817 817 818 818 818 819 819 819 820 820 820 820 820 820 820 820 819 819 819 819 819 819 819 818 818 818 818 818
764 766 771 771 774 778 780 781 782 789 793 787 785 789 795 793 776 770 776 771 764 758 751 749 745 742 742 742 743 746 748 750 750 751 752 753 755 758 761 765 768 771 773 775 778 780 783 786 788 790 792 793 795 796 798 799 800 801 802 803 804 806 808 810 811 812 814 815 815 816 817 817 818 818 819 819 819 820 820 820 820 820 820 820 820 820 820 819 819 819 819 819 819 819 819 818 818
764 767 770 772 778 780 782 787 785 790 795 788 788 790 791 791 777 769 771 765 760 757 753 750 744 740 740 739 740 743 744 747 749 749 750 751 755 759 763 767 770 772 774 777 778 780 782 784 786 788 791 792 793 795 797 798 799 800 801 802 803 805 807 809 810 811 813 814 815 815 816 817 818 818 819 819 820 820 820 821 821 821 821 821 821 820 820 820 819 819 819 819 819 819 819 819 819
765 768 772 777 783 783 785 788 788 794 796 788 790 790 787 790 777 765 765 761 759 760 757 752 745 741 740 740 742 742 742 744 745 748 750 753 757 761 764 766 769 772 774 776 777 779 781 783 785 787 789 791 792 794 796 797 798 799 800 800 802 803 805 807 808 810 811 812 814 815 816 816 817 818 819 819 820 820 821 821 821 821 821 821 821 820 820 820 819 819 818 818 818 818 818 818 818
769 770 776 785 793 795 795 794 796 799 794 789 793 790 787 786 771 762 762 759 759 761 759 756 752 747 743 742 742 742 745 746 745 747 749 753 756 758 760 763 766 768 770 772 774 776 778 780 782 784 785 788 790 792 794 795 797 798 798 799 800 802 804 806 807 808 810 812 813 814 815 816 816 817 818 819 820 820 821 821 821 821 821 821 821 821 820 820 820 819 818 818 817 817 817 817 818
770 769 774 785 798 806 805 805 809 803 791 792 797 792 788 781 769 767 765 761 760 760 758 756 754 751 748 746 743 741 744 748 748 748 749 751 752 754 757 760 762 764 766 769 771 773 775 777 779 780 783 785 788 789 792 794 795 796 797 798 799 801 802 804 806 807 809 811 812 813 814 815 816 817 818 818 819 820 820 821 821 821 822 821 821 821 821 821 820 820 819 819 818 818 817 817 817
771 771 773 778 786 795 799 799 800 796 791 793 793 788 784 778 773 773 768 764 762 758 757 754 751 751 749 748 747 744 744 746 750 752 751 751 751 752 754 756 758 761 763 766 768 770 773 774 776 778 780 783 785 787 789 791 794 795 796 796 797 798 800 802 804 806 808 809 811 812 813 814 815 816 817 818 819 820 820 821 821 821 822 822 822 821 821 821 821 821 820 820 820 819 818 817 817
774 774 773 775 773 777 790 798 796 794 793 792 790 785 781 776 773 771 769 765 763 760 757 754 754 753 750 750 751 750 749 748 749 752 754 754 754 755 755 756 756 758 760 763 765 768 770 771 773 775 777 780 782 784 786 788 791 793 794 795 795 797 798 800 802 804 806 808 809 811 812 813 814 816 817 818 819 819 820 821 821 821 821 822 822 821 821 821 821 821 820 820 820 819 819 818 817
773 774 771 774 771 769 784 800 803 801 797 795 795 786 776 776 774 770 770 767 765 764 759 757 760 757 753 755 756 754 753 751 751 751 753 754 755 757 758 758 758 758 759 760 761 763 765 767 770 772 776 778 780 782 784 786 789 791 793 794 794 796 797 798 800 802 804 806 808 809 810 812 813 814 816 817 818 819 820 820 820 821 821 821 821 821 821 821 820 820 820 819 819 819 819 818 818
766 773 769 771 774 772 778 791 800 805 803 798 796 790 781 781 779 773 772 770 769 769 765 762 762 759 758 760 759 758 755 752 752 752 753 753 754 755 757 759 761 762 762 761 760 761 762 764 767 770 773 775 776 779 781 784 786 789 791 792 793 794 795 797 799 801 803 805 806 808 809 811 812 813 815 816 817 818 819 820 820 820 821 821 821 821 821 820 820 819 819 818 818 818 817 817 817
759 765 767 771 778 780 782 790 795 801 806 800 794 795 790 783 779 776 775 774 772 773 772 768 765 764 765 764 761 761 757 753 753 753 754 754 754 754 756 757 759 761 763 764 765 767 767 767 768 769 771 772 774 777 779 782 784 786 789 790 792 793 794 796 798 800 801 803 804 806 808 809 811 812 813 815 816 817 818 819 819 820 820 820 821 821 821 820 820 819 818 818 817 817 816 816 815
760 762 768 772 776 782 786 790 791 792 801 803 795 794 787 777 776 775 774 775 774 774 774 772 771 769 768 767 764 762 759 756 755 755 755 755 755 755 755 756 758 759 761 763 766 768 769 770 770 770 771 772 774 776 777 779 781 783 786 788 790 792 793 795 797 798 799 801 803 805 806 808 810 811 812 814 815 816 817 818 819 820 820 820 821 821 820 820 820 819 818 817 817 816 815 814 814
767 767 773 775 778 784 786 788 791 789 794 800 799 794 783 776 777 774 772 775 774 772 771 771 773 773 772 771 768 765 763 760 757 756 757 757 757 756 755 756 757 758 760 762 764 767 768 770 771 771 772 773 773 774 775 777 778 780 782 784 786 789 791 794 796 797 798 799 801 803 804 807 808 810 811 813 814 816 816 818 818 819 820 820 821 821 820 820 820 820 819 818 817 816 815 814 813
769 769 774 777 778 782 787 792 795 792 790 796 800 795 782 779 781 776 774 775 773 772 770 769 771 773 775 776 774 771 767 764 761 759 759 759 758 758 758 758 759 759 760 760 762 765 767 768 770 771 773 773 772 772 773 775 777 778 779 781 783 786 788 791 794 796 797 798 800 801 803 805 807 808 810 812 813 815 816 817 818 819 819 820 820 821 820 820 820 820 819 818 817 816 815 814 813